TimeCDT,TemperatureF,Dew PointF,Humidity,Sea Level PressureIn,VisibilityMPH,Wind Direction,Wind SpeedMPH,Gust SpeedMPH,PrecipitationIn,Events,Conditions,WindDirDegrees,DateUTC
12:53 AM,46.0,34.0,63,30.37,10.0,ESE,6.9,-,N/A,,Mostly Cloudy,120,2013-10-14 05:53:00
1:53 AM,46.0,35.1,66,30.36,10.0,ESE,6.9,-,N/A,,Partly Cloudy,110,2013-10-14 06:53:00
2:53 AM,46.0,35.1,66,30.36,10.0,ESE,8.1,-,N/A,,Clear,120,2013-10-14 07:53:00
3:53 AM,46.0,35.1,66,30.34,10.0,ESE,5.8,-,N/A,,Scattered Clouds,110,2013-10-14 08:53:00
4:53 AM,45.0,37.0,74,30.33,10.0,SE,3.5,-,N/A,,Clear,140,2013-10-14 09:53:00
5:53 AM,45.0,36.0,71,30.30,10.0,ESE,5.8,-,N/A,,Clear,110,2013-10-14 10:53:00
6:53 AM,45.0,36.0,71,30.32,10.0,ESE,5.8,-,N/A,,Overcast,120,2013-10-14 11:53:00
7:53 AM,44.1,37.9,79,30.32,10.0,ESE,5.8,-,0.01,Rain,Light Rain,120,2013-10-14 12:53:00
8:53 AM,44.1,39.9,85,30.32,10.0,East,5.8,-,0.02,,Overcast,100,2013-10-14 13:53:00
9:53 AM,44.1,39.9,85,30.30,10.0,East,8.1,-,0.00,,Overcast,100,2013-10-14 14:53:00
10:53 AM,46.0,39.9,79,30.24,10.0,East,10.4,-,0.01,Rain,Light Rain,100,2013-10-14 15:53:00
11:53 AM,46.9,39.9,77,30.21,10.0,ESE,13.8,18.4,0.00,,Overcast,120,2013-10-14 16:53:00
12:53 PM,48.0,39.9,74,30.17,10.0,ESE,10.4,-,0.01,Rain,Light Rain,110,2013-10-14 17:53:00
1:53 PM,48.0,41.0,77,30.13,10.0,ESE,12.7,-,0.05,Rain,Light Rain,120,2013-10-14 18:53:00
2:53 PM,46.9,42.1,83,30.09,10.0,East,10.4,-,0.04,Rain,Light Rain,100,2013-10-14 19:53:00
3:53 PM,48.0,43.0,83,30.03,10.0,East,12.7,-,0.01,Rain,Light Rain,90,2013-10-14 20:53:00
4:53 PM,48.0,43.0,83,30.08,4.0,ENE,6.9,-,0.06,Rain,Rain,70,2013-10-14 21:53:00
5:15 PM,46.4,44.6,93,30.02,2.5,East,11.5,-,0.06,Rain,Rain,80,2013-10-14 22:15:00
5:24 PM,46.4,44.6,93,30.00,6.0,East,13.8,-,0.06,Rain,Light Rain,80,2013-10-14 22:24:00
5:53 PM,48.0,43.0,83,29.98,8.0,East,17.3,25.3,0.09,Rain,Light Rain,90,2013-10-14 22:53:00
6:53 PM,48.0,43.0,83,29.97,10.0,East,13.8,26.5,0.02,Rain,Light Rain,90,2013-10-14 23:53:00
7:53 PM,46.9,44.1,90,29.99,4.0,East,11.5,-,0.23,Rain,Heavy Rain,90,2013-10-15 00:53:00
8:53 PM,46.0,45.0,96,29.94,6.0,East,16.1,21.9,0.29,Rain,Rain,90,2013-10-15 01:53:00
9:53 PM,48.0,45.0,89,29.91,10.0,East,16.1,23.0,0.08,Rain,Light Rain,90,2013-10-15 02:53:00
10:53 PM,48.0,46.0,93,29.81,10.0,East,17.3,33.4,0.05,Rain,Light Rain,100,2013-10-15 03:53:00
11:10 PM,48.2,46.4,93,29.84,10.0,SE,11.5,34.5,0.01,Rain,Light Rain,130,2013-10-15 04:10:00
11:31 PM,48.2,46.4,93,29.82,10.0,ESE,15.0,27.6,0.01,,Overcast,110,2013-10-15 04:31:00
11:53 PM,48.9,46.9,93,29.82,10.0,ESE,15.0,27.6,0.01,,Overcast,110,2013-10-15 04:53:00